owner,sensor,date,latitude,longitude,vertical_datum,sea_water_practical_salinity,qcFlag 
DISL,ioos:station:DISL:PPTA:1,2015-11-01T00:00:00Z,30.2791,-87.5561,1.51,32.08,1111122 
DISL,ioos:station:DISL:PPTA:1,2015-11-01T00:30:00Z,30.2791,-87.5561,1.527,32.04,1111122 
DISL,ioos:station:DISL:PPTA:1,2015-11-01T01:00:00Z,30.2791,-87.5561,1.55,32.29,1111122 
DISL,ioos:station:DISL:PPTA:1,2015-11-01T01:30:00Z,30.2791,-87.5561,1.577,32.26,1111122 
DISL,ioos:station:DISL:PPTA:1,2015-11-01T02:00:00Z,30.2791,-87.5561,1.609,32.33,1111122 
DISL,ioos:station:DISL:PPTA:1,2015-11-01T02:30:00Z,30.2791,-87.5561,1.635,32.45,1111122 
DISL,ioos:station:DISL:PPTA:1,2015-11-01T03:00:00Z,30.2791,-87.5561,1.667,32.46,1111122 
DISL,ioos:station:DISL:PPTA:1,2015-11-01T03:30:00Z,30.2791,-87.5561,1.671,32.43,1111122 
DISL,ioos:station:DISL:PPTA:1,2015-11-01T04:00:00Z,30.2791,-87.5561,1.607,32.18,1111122 
DISL,ioos:station:DISL:PPTA:1,2015-11-01T04:30:00Z,30.2791,-87.5561,1.636,32.23,1111122 
DISL,ioos:station:DISL:PPTA:1,2015-11-01T05:00:00Z,30.2791,-87.5561,1.682,32.42,1111122 
DISL,ioos:station:DISL:PPTA:1,2015-11-01T05:30:00Z,30.2791,-87.5561,1.707,32.53,1111122 
DISL,ioos:station:DISL:PPTA:1,2015-11-01T06:00:00Z,30.2791,-87.5561,1.735,32.59,1111122 
DISL,ioos:station:DISL:PPTA:1,2015-11-01T06:30:00Z,30.2791,-87.5561,1.702,32.46,1111122 
DISL,ioos:station:DISL:PPTA:1,2015-11-01T07:00:00Z,30.2791,-87.5561,1.725,32.54,1111122 
DISL,ioos:station:DISL:PPTA:1,2015-11-01T07:30:00Z,30.2791,-87.5561,1.674,32.36,1111122 
DISL,ioos:station:DISL:PPTA:1,2015-11-01T08:00:00Z,30.2791,-87.5561,1.69,32.49,1111122 
DISL,ioos:station:DISL:PPTA:1,2015-11-01T08:30:00Z,30.2791,-87.5561,1.681,32.5,1111122 
DISL,ioos:station:DISL:PPTA:1,2015-11-01T09:00:00Z,30.2791,-87.5561,1.651,32.32,1111122 
DISL,ioos:station:DISL:PPTA:1,2015-11-01T09:30:00Z,30.2791,-87.5561,1.653,32.32,1111122 
DISL,ioos:station:DISL:PPTA:1,2015-11-01T10:00:00Z,30.2791,-87.5561,1.639,29.78,1111122 
DISL,ioos:station:DISL:PPTA:1,2015-11-01T10:30:00Z,30.2791,-87.5561,1.615,30.89,1111122 
DISL,ioos:station:DISL:PPTA:1,2015-11-01T11:00:00Z,30.2791,-87.5561,1.598,32.12,1111122 
DISL,ioos:station:DISL:PPTA:1,2015-11-01T11:30:00Z,30.2791,-87.5561,1.537,31.97,1111122 
DISL,ioos:station:DISL:PPTA:1,2015-11-01T12:00:00Z,30.2791,-87.5561,1.537,30.24,1111122 
DISL,ioos:station:DISL:PPTA:1,2015-11-01T12:30:00Z,30.2791,-87.5561,1.524,29.9,1111122 
DISL,ioos:station:DISL:PPTA:1,2015-11-01T13:00:00Z,30.2791,-87.5561,1.525,29.06,1111122 
DISL,ioos:station:DISL:PPTA:1,2015-11-01T13:30:00Z,30.2791,-87.5561,1.525,28.94,1111122 
DISL,ioos:station:DISL:PPTA:1,2015-11-01T14:00:00Z,30.2791,-87.5561,1.481,28.89,1111122 
DISL,ioos:station:DISL:PPTA:1,2015-11-01T14:30:00Z,30.2791,-87.5561,1.489,28.3,1111122 
DISL,ioos:station:DISL:PPTA:1,2015-11-01T15:00:00Z,30.2791,-87.5561,1.47,28.32,1111122 
DISL,ioos:station:DISL:PPTA:1,2015-11-01T15:30:00Z,30.2791,-87.5561,1.442,27.93,1111122 
DISL,ioos:station:DISL:PPTA:1,2015-11-01T16:00:00Z,30.2791,-87.5561,1.465,27.77,1111122 
DISL,ioos:station:DISL:PPTA:1,2015-11-01T16:30:00Z,30.2791,-87.5561,1.453,27.28,1111122 
DISL,ioos:station:DISL:PPTA:1,2015-11-01T17:00:00Z,30.2791,-87.5561,1.435,27.32,1111122 
DISL,ioos:station:DISL:PPTA:1,2015-11-01T17:30:00Z,30.2791,-87.5561,1.439,27.16,1111122 
DISL,ioos:station:DISL:PPTA:1,2015-11-01T18:00:00Z,30.2791,-87.5561,1.418,27.2,1111122 
DISL,ioos:station:DISL:PPTA:1,2015-11-01T18:30:00Z,30.2791,-87.5561,1.394,28.04,1111122 
DISL,ioos:station:DISL:PPTA:1,2015-11-01T19:00:00Z,30.2791,-87.5561,1.399,27.29,1111122 
DISL,ioos:station:DISL:PPTA:1,2015-11-01T19:30:00Z,30.2791,-87.5561,1.421,26.23,1111122 
DISL,ioos:station:DISL:PPTA:1,2015-11-01T20:00:00Z,30.2791,-87.5561,1.434,24.95,1111122 
DISL,ioos:station:DISL:PPTA:1,2015-11-01T20:30:00Z,30.2791,-87.5561,1.457,25.31,1111122 
DISL,ioos:station:DISL:PPTA:1,2015-11-01T21:00:00Z,30.2791,-87.5561,1.469,24.39,1111122 
DISL,ioos:station:DISL:PPTA:1,2015-11-01T21:30:00Z,30.2791,-87.5561,1.451,24.36,1111122 
DISL,ioos:station:DISL:PPTA:1,2015-11-01T22:00:00Z,30.2791,-87.5561,1.468,28.09,1111122 
DISL,ioos:station:DISL:PPTA:1,2015-11-01T22:30:00Z,30.2791,-87.5561,1.437,23.23,1111122 
DISL,ioos:station:DISL:PPTA:1,2015-11-01T23:00:00Z,30.2791,-87.5561,1.492,29.68,1111122 
DISL,ioos:station:DISL:PPTA:1,2015-11-01T23:30:00Z,30.2791,-87.5561,1.545,29.67,1111122 
DISL,ioos:station:DISL:PPTA:1,2015-11-02T00:00:00Z,30.2791,-87.5561,1.576,28.04,1111122 
DISL,ioos:station:DISL:PPTA:1,2015-11-02T00:30:00Z,30.2791,-87.5561,1.565,30.14,1111122 
DISL,ioos:station:DISL:PPTA:1,2015-11-02T01:00:00Z,30.2791,-87.5561,1.539,30.75,1111122 
DISL,ioos:station:DISL:PPTA:1,2015-11-02T01:30:00Z,30.2791,-87.5561,1.624,32.12,1111122 
DISL,ioos:station:DISL:PPTA:1,2015-11-02T02:00:00Z,30.2791,-87.5561,1.56,32.12,1111122 
DISL,ioos:station:DISL:PPTA:1,2015-11-02T02:30:00Z,30.2791,-87.5561,1.599,31.64,1111122 
DISL,ioos:station:DISL:PPTA:1,2015-11-02T03:00:00Z,30.2791,-87.5561,1.612,32.37,1111122 
DISL,ioos:station:DISL:PPTA:1,2015-11-02T03:30:00Z,30.2791,-87.5561,1.634,32.32,1111122 
DISL,ioos:station:DISL:PPTA:1,2015-11-02T04:00:00Z,30.2791,-87.5561,1.652,32.28,1111122 
DISL,ioos:station:DISL:PPTA:1,2015-11-02T04:30:00Z,30.2791,-87.5561,1.659,32.48,1111122 
DISL,ioos:station:DISL:PPTA:1,2015-11-02T05:00:00Z,30.2791,-87.5561,1.65,32.45,1111122 
DISL,ioos:station:DISL:PPTA:1,2015-11-02T05:30:00Z,30.2791,-87.5561,1.675,32.49,1111122 
DISL,ioos:station:DISL:PPTA:1,2015-11-02T06:00:00Z,30.2791,-87.5561,1.665,32.54,1111122 
DISL,ioos:station:DISL:PPTA:1,2015-11-02T06:30:00Z,30.2791,-87.5561,1.692,32.5,1111122 
DISL,ioos:station:DISL:PPTA:1,2015-11-02T07:00:00Z,30.2791,-87.5561,1.684,32.57,1111122 
DISL,ioos:station:DISL:PPTA:1,2015-11-02T07:30:00Z,30.2791,-87.5561,1.693,32.63,1111122 
DISL,ioos:station:DISL:PPTA:1,2015-11-02T08:00:00Z,30.2791,-87.5561,1.731,32.64,1111122 
DISL,ioos:station:DISL:PPTA:1,2015-11-02T08:30:00Z,30.2791,-87.5561,1.673,32.7,1111122 
DISL,ioos:station:DISL:PPTA:1,2015-11-02T09:00:00Z,30.2791,-87.5561,1.723,32.54,1111122 
DISL,ioos:station:DISL:PPTA:1,2015-11-02T09:30:00Z,30.2791,-87.5561,1.647,32.47,1111122 
DISL,ioos:station:DISL:PPTA:1,2015-11-02T10:00:00Z,30.2791,-87.5561,1.636,32.23,1111122 
DISL,ioos:station:DISL:PPTA:1,2015-11-02T10:30:00Z,30.2791,-87.5561,1.644,32.44,1111122 
DISL,ioos:station:DISL:PPTA:1,2015-11-02T11:00:00Z,30.2791,-87.5561,1.625,32.2,1111122 
DISL,ioos:station:DISL:PPTA:1,2015-11-02T11:30:00Z,30.2791,-87.5561,1.625,31.91,1111122 
DISL,ioos:station:DISL:PPTA:1,2015-11-02T12:00:00Z,30.2791,-87.5561,1.573,31.98,1111122 
DISL,ioos:station:DISL:PPTA:1,2015-11-02T12:30:00Z,30.2791,-87.5561,1.574,31.61,1111122 
DISL,ioos:station:DISL:PPTA:1,2015-11-02T13:00:00Z,30.2791,-87.5561,1.585,31.64,1111122 
DISL,ioos:station:DISL:PPTA:1,2015-11-02T13:30:00Z,30.2791,-87.5561,1.569,31.53,1111122 
DISL,ioos:station:DISL:PPTA:1,2015-11-02T14:00:00Z,30.2791,-87.5561,1.553,30.74,1111122 
DISL,ioos:station:DISL:PPTA:1,2015-11-02T14:30:00Z,30.2791,-87.5561,1.531,30.08,1111122 
DISL,ioos:station:DISL:PPTA:1,2015-11-02T15:00:00Z,30.2791,-87.5561,1.511,29.69,1111122 
DISL,ioos:station:DISL:PPTA:1,2015-11-02T15:30:00Z,30.2791,-87.5561,1.5,29.56,1111122 
DISL,ioos:station:DISL:PPTA:1,2015-11-02T16:00:00Z,30.2791,-87.5561,1.495,29.44,1111122 
DISL,ioos:station:DISL:PPTA:1,2015-11-02T16:30:00Z,30.2791,-87.5561,1.487,28.9,1111122 
DISL,ioos:station:DISL:PPTA:1,2015-11-02T17:00:00Z,30.2791,-87.5561,1.457,28.72,1111122 
DISL,ioos:station:DISL:PPTA:1,2015-11-02T17:30:00Z,30.2791,-87.5561,1.445,28.88,1111122 
DISL,ioos:station:DISL:PPTA:1,2015-11-02T18:00:00Z,30.2791,-87.5561,1.438,28.96,1111122 
DISL,ioos:station:DISL:PPTA:1,2015-11-02T18:30:00Z,30.2791,-87.5561,1.42,28.82,1111122 
DISL,ioos:station:DISL:PPTA:1,2015-11-02T19:00:00Z,30.2791,-87.5561,1.403,27.93,1111122 
DISL,ioos:station:DISL:PPTA:1,2015-11-02T19:30:00Z,30.2791,-87.5561,1.387,28.63,1111122 
DISL,ioos:station:DISL:PPTA:1,2015-11-02T20:00:00Z,30.2791,-87.5561,1.398,26.34,1111122 
DISL,ioos:station:DISL:PPTA:1,2015-11-02T20:30:00Z,30.2791,-87.5561,1.401,28.52,1111122 
DISL,ioos:station:DISL:PPTA:1,2015-11-02T21:00:00Z,30.2791,-87.5561,1.423,25.02,1111122 
DISL,ioos:station:DISL:PPTA:1,2015-11-02T21:30:00Z,30.2791,-87.5561,1.401,25.35,1111122 
DISL,ioos:station:DISL:PPTA:1,2015-11-02T22:00:00Z,30.2791,-87.5561,1.407,24.67,1111122 
DISL,ioos:station:DISL:PPTA:1,2015-11-02T22:30:00Z,30.2791,-87.5561,1.433,25.12,1111122 
DISL,ioos:station:DISL:PPTA:1,2015-11-02T23:00:00Z,30.2791,-87.5561,1.453,27.41,1111122 
DISL,ioos:station:DISL:PPTA:1,2015-11-02T23:30:00Z,30.2791,-87.5561,1.454,27.38,1111122 
DISL,ioos:station:DISL:PPTA:1,2015-11-03T00:00:00Z,30.2791,-87.5561,1.438,27.25,1111122 
DISL,ioos:station:DISL:PPTA:1,2015-11-03T00:30:00Z,30.2791,-87.5561,1.455,29.12,1111122 
DISL,ioos:station:DISL:PPTA:1,2015-11-03T01:00:00Z,30.2791,-87.5561,1.442,27.35,1111122 
DISL,ioos:station:DISL:PPTA:1,2015-11-03T01:30:00Z,30.2791,-87.5561,1.448,30.51,1111122 
DISL,ioos:station:DISL:PPTA:1,2015-11-03T02:00:00Z,30.2791,-87.5561,1.471,30.67,1111122 
DISL,ioos:station:DISL:PPTA:1,2015-11-03T02:30:00Z,30.2791,-87.5561,1.498,31.07,1111122 
DISL,ioos:station:DISL:PPTA:1,2015-11-03T03:00:00Z,30.2791,-87.5561,1.496,31.14,1111122 
DISL,ioos:station:DISL:PPTA:1,2015-11-03T03:30:00Z,30.2791,-87.5561,1.511,32.19,1111122 
DISL,ioos:station:DISL:PPTA:1,2015-11-03T04:00:00Z,30.2791,-87.5561,1.526,32.3,1111122 
DISL,ioos:station:DISL:PPTA:1,2015-11-03T04:30:00Z,30.2791,-87.5561,1.527,32.45,1111122 
DISL,ioos:station:DISL:PPTA:1,2015-11-03T05:00:00Z,30.2791,-87.5561,1.546,32.63,1111122 
DISL,ioos:station:DISL:PPTA:1,2015-11-03T05:30:00Z,30.2791,-87.5561,1.552,32.56,1111122 
DISL,ioos:station:DISL:PPTA:1,2015-11-03T06:00:00Z,30.2791,-87.5561,1.563,32.78,1111122 
DISL,ioos:station:DISL:PPTA:1,2015-11-03T06:30:00Z,30.2791,-87.5561,1.577,32.69,1111122 
DISL,ioos:station:DISL:PPTA:1,2015-11-03T07:00:00Z,30.2791,-87.5561,1.569,32.81,1111122 
DISL,ioos:station:DISL:PPTA:1,2015-11-03T07:30:00Z,30.2791,-87.5561,1.569,32.89,1111122 
DISL,ioos:station:DISL:PPTA:1,2015-11-03T08:00:00Z,30.2791,-87.5561,1.572,32.86,1111122 
DISL,ioos:station:DISL:PPTA:1,2015-11-03T08:30:00Z,30.2791,-87.5561,1.564,32.96,1111122 
DISL,ioos:station:DISL:PPTA:1,2015-11-03T09:00:00Z,30.2791,-87.5561,1.565,32.91,1111122 
DISL,ioos:station:DISL:PPTA:1,2015-11-03T09:30:00Z,30.2791,-87.5561,1.561,32.93,1111122 
DISL,ioos:station:DISL:PPTA:1,2015-11-03T10:00:00Z,30.2791,-87.5561,1.569,31.93,1111122 
DISL,ioos:station:DISL:PPTA:1,2015-11-03T10:30:00Z,30.2791,-87.5561,1.564,32.02,1111122 
DISL,ioos:station:DISL:PPTA:1,2015-11-03T11:00:00Z,30.2791,-87.5561,1.554,30.97,1111122 
DISL,ioos:station:DISL:PPTA:1,2015-11-03T11:30:00Z,30.2791,-87.5561,1.532,29.58,1111122 
DISL,ioos:station:DISL:PPTA:1,2015-11-03T12:00:00Z,30.2791,-87.5561,1.516,30.65,1111122 
DISL,ioos:station:DISL:PPTA:1,2015-11-03T12:30:00Z,30.2791,-87.5561,1.505,31.19,1111122 
DISL,ioos:station:DISL:PPTA:1,2015-11-03T13:00:00Z,30.2791,-87.5561,1.479,31.49,1111122 
DISL,ioos:station:DISL:PPTA:1,2015-11-03T13:30:00Z,30.2791,-87.5561,1.468,31.07,1111122 
DISL,ioos:station:DISL:PPTA:1,2015-11-03T14:00:00Z,30.2791,-87.5561,1.454,30.93,1111122 
DISL,ioos:station:DISL:PPTA:1,2015-11-03T14:30:00Z,30.2791,-87.5561,1.441,30.19,1111122 
DISL,ioos:station:DISL:PPTA:1,2015-11-03T15:00:00Z,30.2791,-87.5561,1.424,30.43,1111122 
DISL,ioos:station:DISL:PPTA:1,2015-11-03T15:30:00Z,30.2791,-87.5561,1.425,30.15,1111122 
DISL,ioos:station:DISL:PPTA:1,2015-11-03T16:00:00Z,30.2791,-87.5561,1.412,29.13,1111122 
DISL,ioos:station:DISL:PPTA:1,2015-11-03T16:30:00Z,30.2791,-87.5561,1.402,28.82,1111122 
DISL,ioos:station:DISL:PPTA:1,2015-11-03T17:00:00Z,30.2791,-87.5561,1.391,27.87,1111122 
DISL,ioos:station:DISL:PPTA:1,2015-11-03T17:30:00Z,30.2791,-87.5561,1.376,28.14,1111122 
DISL,ioos:station:DISL:PPTA:1,2015-11-03T18:00:00Z,30.2791,-87.5561,1.36,28.79,1111122 
DISL,ioos:station:DISL:PPTA:1,2015-11-03T18:30:00Z,30.2791,-87.5561,1.354,29.63,1111122 
DISL,ioos:station:DISL:PPTA:1,2015-11-03T19:00:00Z,30.2791,-87.5561,1.362,28.28,1111122 
DISL,ioos:station:DISL:PPTA:1,2015-11-03T19:30:00Z,30.2791,-87.5561,1.349,26.97,1111122 
DISL,ioos:station:DISL:PPTA:1,2015-11-03T20:00:00Z,30.2791,-87.5561,1.352,29.03,1111122 
DISL,ioos:station:DISL:PPTA:1,2015-11-03T20:30:00Z,30.2791,-87.5561,1.352,26.8,1111122 
DISL,ioos:station:DISL:PPTA:1,2015-11-03T21:00:00Z,30.2791,-87.5561,1.344,25.99,1111122 
DISL,ioos:station:DISL:PPTA:1,2015-11-03T21:30:00Z,30.2791,-87.5561,1.345,26.39,1111122 
DISL,ioos:station:DISL:PPTA:1,2015-11-03T22:00:00Z,30.2791,-87.5561,1.355,26.39,1111122 
DISL,ioos:station:DISL:PPTA:1,2015-11-03T22:30:00Z,30.2791,-87.5561,1.35,25.22,1111122 
DISL,ioos:station:DISL:PPTA:1,2015-11-03T23:00:00Z,30.2791,-87.5561,1.36,25.91,1111122 
DISL,ioos:station:DISL:PPTA:1,2015-11-03T23:30:00Z,30.2791,-87.5561,1.367,26.4,1111122 
DISL,ioos:station:DISL:PPTA:1,2015-11-04T00:00:00Z,30.2791,-87.5561,1.36,26.36,1111122 
DISL,ioos:station:DISL:PPTA:1,2015-11-04T00:30:00Z,30.2791,-87.5561,1.367,29.56,1111122 
DISL,ioos:station:DISL:PPTA:1,2015-11-04T01:00:00Z,30.2791,-87.5561,1.374,30.49,1111122 
DISL,ioos:station:DISL:PPTA:1,2015-11-04T01:30:00Z,30.2791,-87.5561,1.388,31.91,1111122 
DISL,ioos:station:DISL:PPTA:1,2015-11-04T02:00:00Z,30.2791,-87.5561,1.391,31.86,1111122 
DISL,ioos:station:DISL:PPTA:1,2015-11-04T02:30:00Z,30.2791,-87.5561,1.394,31.88,1111122 
DISL,ioos:station:DISL:PPTA:1,2015-11-04T03:00:00Z,30.2791,-87.5561,1.398,31.69,1111122 
DISL,ioos:station:DISL:PPTA:1,2015-11-04T03:30:00Z,30.2791,-87.5561,1.407,31.81,1111122 
DISL,ioos:station:DISL:PPTA:1,2015-11-04T04:00:00Z,30.2791,-87.5561,1.42,31.75,1111122 
DISL,ioos:station:DISL:PPTA:1,2015-11-04T04:30:00Z,30.2791,-87.5561,1.431,31.68,1111122 
DISL,ioos:station:DISL:PPTA:1,2015-11-04T05:00:00Z,30.2791,-87.5561,1.454,31.65,1111122 
DISL,ioos:station:DISL:PPTA:1,2015-11-04T05:30:00Z,30.2791,-87.5561,1.461,31.44,1111122 
DISL,ioos:station:DISL:PPTA:1,2015-11-04T06:00:00Z,30.2791,-87.5561,1.467,31.67,1111122 
DISL,ioos:station:DISL:PPTA:1,2015-11-04T06:30:00Z,30.2791,-87.5561,1.474,31.61,1111122 
DISL,ioos:station:DISL:PPTA:1,2015-11-04T07:00:00Z,30.2791,-87.5561,1.484,31.56,1111122 
DISL,ioos:station:DISL:PPTA:1,2015-11-04T07:30:00Z,30.2791,-87.5561,1.494,31.69,1111122 
DISL,ioos:station:DISL:PPTA:1,2015-11-04T08:00:00Z,30.2791,-87.5561,1.492,31.75,1111122 
DISL,ioos:station:DISL:PPTA:1,2015-11-04T08:30:00Z,30.2791,-87.5561,1.493,31.79,1111122 
DISL,ioos:station:DISL:PPTA:1,2015-11-04T09:00:00Z,30.2791,-87.5561,1.48,32.15,1111122 
DISL,ioos:station:DISL:PPTA:1,2015-11-04T09:30:00Z,30.2791,-87.5561,1.474,32.18,1111122 
DISL,ioos:station:DISL:PPTA:1,2015-11-04T10:00:00Z,30.2791,-87.5561,1.479,31.98,1111122 
DISL,ioos:station:DISL:PPTA:1,2015-11-04T10:30:00Z,30.2791,-87.5561,1.481,30.4,1111122 
DISL,ioos:station:DISL:PPTA:1,2015-11-04T11:00:00Z,30.2791,-87.5561,1.476,30.78,1111122 
DISL,ioos:station:DISL:PPTA:1,2015-11-04T11:30:00Z,30.2791,-87.5561,1.479,29.11,1111122 
DISL,ioos:station:DISL:PPTA:1,2015-11-04T12:00:00Z,30.2791,-87.5561,1.466,28.1,1111122 
DISL,ioos:station:DISL:PPTA:1,2015-11-04T12:30:00Z,30.2791,-87.5561,1.447,28.16,1111122 
DISL,ioos:station:DISL:PPTA:1,2015-11-04T13:00:00Z,30.2791,-87.5561,1.446,26.26,1111122 
DISL,ioos:station:DISL:PPTA:1,2015-11-04T13:30:00Z,30.2791,-87.5561,1.437,26.44,1111122 
DISL,ioos:station:DISL:PPTA:1,2015-11-04T14:00:00Z,30.2791,-87.5561,1.419,26.4,1111122 
DISL,ioos:station:DISL:PPTA:1,2015-11-04T14:30:00Z,30.2791,-87.5561,1.413,25.64,1111122 
DISL,ioos:station:DISL:PPTA:1,2015-11-04T15:00:00Z,30.2791,-87.5561,1.383,25.76,1111122 
DISL,ioos:station:DISL:PPTA:1,2015-11-04T15:30:00Z,30.2791,-87.5561,1.379,26.3,1111122 
DISL,ioos:station:DISL:PPTA:1,2015-11-04T16:00:00Z,30.2791,-87.5561,1.367,25.26,1111122 
DISL,ioos:station:DISL:PPTA:1,2015-11-04T16:30:00Z,30.2791,-87.5561,1.362,25.41,1111122 
DISL,ioos:station:DISL:PPTA:1,2015-11-04T17:00:00Z,30.2791,-87.5561,1.342,24.1,1111122 
DISL,ioos:station:DISL:PPTA:1,2015-11-04T17:30:00Z,30.2791,-87.5561,1.351,23.39,1111122 
DISL,ioos:station:DISL:PPTA:1,2015-11-04T18:00:00Z,30.2791,-87.5561,1.347,23.58,1111122 
DISL,ioos:station:DISL:PPTA:1,2015-11-04T18:30:00Z,30.2791,-87.5561,1.34,23.54,1111122 
DISL,ioos:station:DISL:PPTA:1,2015-11-04T19:00:00Z,30.2791,-87.5561,1.337,24.81,1111122 
DISL,ioos:station:DISL:PPTA:1,2015-11-04T19:30:00Z,30.2791,-87.5561,1.342,24.46,1111122 
DISL,ioos:station:DISL:PPTA:1,2015-11-04T20:00:00Z,30.2791,-87.5561,1.34,25.23,1111122 
DISL,ioos:station:DISL:PPTA:1,2015-11-04T20:30:00Z,30.2791,-87.5561,1.331,23.68,1111122 
DISL,ioos:station:DISL:PPTA:1,2015-11-04T21:00:00Z,30.2791,-87.5561,1.322,22.81,1111122 
DISL,ioos:station:DISL:PPTA:1,2015-11-04T21:30:00Z,30.2791,-87.5561,1.329,23.82,1111122 
DISL,ioos:station:DISL:PPTA:1,2015-11-04T22:00:00Z,30.2791,-87.5561,1.317,22.26,1111122 
DISL,ioos:station:DISL:PPTA:1,2015-11-04T22:30:00Z,30.2791,-87.5561,1.334,24.06,1111122 
DISL,ioos:station:DISL:PPTA:1,2015-11-04T23:00:00Z,30.2791,-87.5561,1.338,23.98,1111122 
DISL,ioos:station:DISL:PPTA:1,2015-11-04T23:30:00Z,30.2791,-87.5561,1.334,25.34,1111122 
DISL,ioos:station:DISL:PPTA:1,2015-11-05T00:00:00Z,30.2791,-87.5561,1.352,27.26,1111122 
DISL,ioos:station:DISL:PPTA:1,2015-11-05T00:30:00Z,30.2791,-87.5561,1.353,27.45,1111122 
DISL,ioos:station:DISL:PPTA:1,2015-11-05T01:00:00Z,30.2791,-87.5561,1.358,28.23,1111122 
DISL,ioos:station:DISL:PPTA:1,2015-11-05T01:30:00Z,30.2791,-87.5561,1.362,31.08,1111122 
DISL,ioos:station:DISL:PPTA:1,2015-11-05T02:00:00Z,30.2791,-87.5561,1.363,31.66,1111122 
DISL,ioos:station:DISL:PPTA:1,2015-11-05T02:30:00Z,30.2791,-87.5561,1.373,31.9,1111122 
DISL,ioos:station:DISL:PPTA:1,2015-11-05T03:00:00Z,30.2791,-87.5561,1.367,32.03,1111122 
DISL,ioos:station:DISL:PPTA:1,2015-11-05T03:30:00Z,30.2791,-87.5561,1.369,31.7,1111122 
DISL,ioos:station:DISL:PPTA:1,2015-11-05T04:00:00Z,30.2791,-87.5561,1.38,32.09,1111122 
DISL,ioos:station:DISL:PPTA:1,2015-11-05T04:30:00Z,30.2791,-87.5561,1.384,32.03,1111122 
DISL,ioos:station:DISL:PPTA:1,2015-11-05T05:00:00Z,30.2791,-87.5561,1.387,32.12,1111122 
DISL,ioos:station:DISL:PPTA:1,2015-11-05T05:30:00Z,30.2791,-87.5561,1.404,32.14,1111122 
DISL,ioos:station:DISL:PPTA:1,2015-11-05T06:00:00Z,30.2791,-87.5561,1.413,32.21,1111122 
DISL,ioos:station:DISL:PPTA:1,2015-11-05T06:30:00Z,30.2791,-87.5561,1.424,32.17,1111122 
DISL,ioos:station:DISL:PPTA:1,2015-11-05T07:00:00Z,30.2791,-87.5561,1.424,32.21,1111122 
DISL,ioos:station:DISL:PPTA:1,2015-11-05T07:30:00Z,30.2791,-87.5561,1.429,32.19,1111122 
DISL,ioos:station:DISL:PPTA:1,2015-11-05T08:00:00Z,30.2791,-87.5561,1.426,32.15,1111122 
DISL,ioos:station:DISL:PPTA:1,2015-11-05T08:30:00Z,30.2791,-87.5561,1.437,32.17,1111122 
DISL,ioos:station:DISL:PPTA:1,2015-11-05T09:00:00Z,30.2791,-87.5561,1.428,32.02,1111122 
DISL,ioos:station:DISL:PPTA:1,2015-11-05T09:30:00Z,30.2791,-87.5561,1.42,31.96,1111122 
DISL,ioos:station:DISL:PPTA:1,2015-11-05T10:00:00Z,30.2791,-87.5561,1.424,22.13,1111122 
DISL,ioos:station:DISL:PPTA:1,2015-11-05T10:30:00Z,30.2791,-87.5561,1.435,24.7,1111122 
DISL,ioos:station:DISL:PPTA:1,2015-11-05T11:00:00Z,30.2791,-87.5561,1.428,26.66,1111122 
DISL,ioos:station:DISL:PPTA:1,2015-11-05T11:30:00Z,30.2791,-87.5561,1.441,20.4,1111122 
DISL,ioos:station:DISL:PPTA:1,2015-11-05T12:00:00Z,30.2791,-87.5561,1.442,20.67,1111122 
DISL,ioos:station:DISL:PPTA:1,2015-11-05T12:30:00Z,30.2791,-87.5561,1.448,20.13,1111122 
DISL,ioos:station:DISL:PPTA:1,2015-11-05T13:00:00Z,30.2791,-87.5561,1.434,23.11,1111122 
DISL,ioos:station:DISL:PPTA:1,2015-11-05T13:30:00Z,30.2791,-87.5561,1.43,21.35,1111122 
DISL,ioos:station:DISL:PPTA:1,2015-11-05T14:00:00Z,30.2791,-87.5561,1.415,19.51,1111122 
DISL,ioos:station:DISL:PPTA:1,2015-11-05T14:30:00Z,30.2791,-87.5561,1.407,18.76,1111122 
DISL,ioos:station:DISL:PPTA:1,2015-11-05T15:00:00Z,30.2791,-87.5561,1.404,17.88,1111122 
DISL,ioos:station:DISL:PPTA:1,2015-11-05T15:30:00Z,30.2791,-87.5561,1.392,26.45,1111122 
DISL,ioos:station:DISL:PPTA:1,2015-11-05T16:00:00Z,30.2791,-87.5561,1.392,20.18,1111122 
DISL,ioos:station:DISL:PPTA:1,2015-11-05T16:30:00Z,30.2791,-87.5561,1.377,24.7,1111122 
DISL,ioos:station:DISL:PPTA:1,2015-11-05T17:00:00Z,30.2791,-87.5561,1.373,25.7,1111122 
DISL,ioos:station:DISL:PPTA:1,2015-11-05T17:30:00Z,30.2791,-87.5561,1.382,18.37,1111122 
DISL,ioos:station:DISL:PPTA:1,2015-11-05T18:00:00Z,30.2791,-87.5561,1.389,24.15,1111122 
DISL,ioos:station:DISL:PPTA:1,2015-11-05T18:30:00Z,30.2791,-87.5561,1.381,17.69,1111122 
DISL,ioos:station:DISL:PPTA:1,2015-11-05T19:00:00Z,30.2791,-87.5561,1.379,18.61,1111122 
DISL,ioos:station:DISL:PPTA:1,2015-11-05T19:30:00Z,30.2791,-87.5561,1.391,19.31,1111122 
DISL,ioos:station:DISL:PPTA:1,2015-11-05T20:00:00Z,30.2791,-87.5561,1.386,19.44,1111122 
DISL,ioos:station:DISL:PPTA:1,2015-11-05T20:30:00Z,30.2791,-87.5561,1.378,20.26,1111122 
DISL,ioos:station:DISL:PPTA:1,2015-11-05T21:00:00Z,30.2791,-87.5561,1.38,18.38,1111122 
DISL,ioos:station:DISL:PPTA:1,2015-11-05T21:30:00Z,30.2791,-87.5561,1.382,20.17,1111122 
DISL,ioos:station:DISL:PPTA:1,2015-11-05T22:00:00Z,30.2791,-87.5561,1.383,19.36,1111122 
DISL,ioos:station:DISL:PPTA:1,2015-11-05T22:30:00Z,30.2791,-87.5561,1.382,18.06,1111122 
DISL,ioos:station:DISL:PPTA:1,2015-11-05T23:00:00Z,30.2791,-87.5561,1.379,19.55,1111122 
DISL,ioos:station:DISL:PPTA:1,2015-11-05T23:30:00Z,30.2791,-87.5561,1.382,22.92,1111122 
DISL,ioos:station:DISL:PPTA:1,2015-11-06T00:00:00Z,30.2791,-87.5561,1.395,25.41,1111122 
DISL,ioos:station:DISL:PPTA:1,2015-11-06T00:30:00Z,30.2791,-87.5561,1.411,27.62,1111122 
DISL,ioos:station:DISL:PPTA:1,2015-11-06T01:00:00Z,30.2791,-87.5561,1.406,28.68,1111122 
DISL,ioos:station:DISL:PPTA:1,2015-11-06T01:30:00Z,30.2791,-87.5561,1.415,29.44,1111122 
DISL,ioos:station:DISL:PPTA:1,2015-11-06T02:00:00Z,30.2791,-87.5561,1.42,29.82,1111122 
DISL,ioos:station:DISL:PPTA:1,2015-11-06T02:30:00Z,30.2791,-87.5561,1.407,29.61,1111122 
DISL,ioos:station:DISL:PPTA:1,2015-11-06T03:00:00Z,30.2791,-87.5561,1.425,30.03,1111122 
DISL,ioos:station:DISL:PPTA:1,2015-11-06T03:30:00Z,30.2791,-87.5561,1.412,30.24,1111122 
DISL,ioos:station:DISL:PPTA:1,2015-11-06T04:00:00Z,30.2791,-87.5561,1.416,30.12,1111122 
DISL,ioos:station:DISL:PPTA:1,2015-11-06T04:30:00Z,30.2791,-87.5561,1.418,29.91,1111122 
DISL,ioos:station:DISL:PPTA:1,2015-11-06T05:00:00Z,30.2791,-87.5561,1.428,30.01,1111122 
DISL,ioos:station:DISL:PPTA:1,2015-11-06T05:30:00Z,30.2791,-87.5561,1.415,29.65,1111122 
DISL,ioos:station:DISL:PPTA:1,2015-11-06T06:00:00Z,30.2791,-87.5561,1.425,29.85,1111122 
DISL,ioos:station:DISL:PPTA:1,2015-11-06T06:30:00Z,30.2791,-87.5561,1.425,29.82,1111122 
DISL,ioos:station:DISL:PPTA:1,2015-11-06T07:00:00Z,30.2791,-87.5561,1.425,29.59,1111122 
DISL,ioos:station:DISL:PPTA:1,2015-11-06T07:30:00Z,30.2791,-87.5561,1.425,29.09,1111122 
DISL,ioos:station:DISL:PPTA:1,2015-11-06T08:00:00Z,30.2791,-87.5561,1.429,29.14,1111122 
DISL,ioos:station:DISL:PPTA:1,2015-11-06T08:30:00Z,30.2791,-87.5561,1.429,27.89,1111122 
DISL,ioos:station:DISL:PPTA:1,2015-11-06T09:00:00Z,30.2791,-87.5561,1.425,27.42,1111122 
DISL,ioos:station:DISL:PPTA:1,2015-11-06T09:30:00Z,30.2791,-87.5561,1.437,20.65,1111122 
DISL,ioos:station:DISL:PPTA:1,2015-11-06T10:00:00Z,30.2791,-87.5561,1.425,16.89,1111122 
DISL,ioos:station:DISL:PPTA:1,2015-11-06T10:30:00Z,30.2791,-87.5561,1.426,20.44,1111122 
DISL,ioos:station:DISL:PPTA:1,2015-11-06T11:00:00Z,30.2791,-87.5561,1.432,17.37,1111122 
DISL,ioos:station:DISL:PPTA:1,2015-11-06T11:30:00Z,30.2791,-87.5561,1.438,18.02,1111122 
DISL,ioos:station:DISL:PPTA:1,2015-11-06T12:00:00Z,30.2791,-87.5561,1.432,17.16,1111122 
DISL,ioos:station:DISL:PPTA:1,2015-11-06T12:30:00Z,30.2791,-87.5561,1.434,16.4,1111122 
DISL,ioos:station:DISL:PPTA:1,2015-11-06T13:00:00Z,30.2791,-87.5561,1.432,18.48,1111122 
DISL,ioos:station:DISL:PPTA:1,2015-11-06T13:30:00Z,30.2791,-87.5561,1.434,20.13,1111122 
DISL,ioos:station:DISL:PPTA:1,2015-11-06T14:00:00Z,30.2791,-87.5561,1.428,18.54,1111122 